Time,TemperatureF,DewpointF,PressureIn,WindDirection,WindDirectionDegrees,WindSpeedMPH,WindSpeedGustMPH,Humidity,HourlyPrecipIn,Conditions,Clouds,dailyrainin,SoftwareType,DateUTC
2013-02-12 00:00:00,35.6,28.1,29.73,WSW,253,9.0,18.0,74,0.00,,OVC031,0.08,VWS V14.01,2013-02-12 05:00:00,
2013-02-12 00:01:00,35.6,28.1,29.72,West,262,9.0,18.0,74,0.00,,OVC031,0.08,VWS V14.01,2013-02-12 05:01:00,
2013-02-12 00:06:00,35.6,28.1,29.73,West,278,5.0,12.0,74,0.00,,OVC029,0.00,VWS V14.01,2013-02-12 05:06:00,
2013-02-12 00:11:00,35.6,28.5,29.73,West,269,5.0,12.0,75,0.00,,OVC029,0.00,VWS V14.01,2013-02-12 05:11:00,
2013-02-12 00:16:00,35.5,28.4,29.73,WSW,242,8.0,12.0,75,0.00,,OVC029,0.00,VWS V14.01,2013-02-12 05:16:00,
2013-02-12 00:22:00,35.4,28.3,29.73,West,271,6.0,12.0,75,0.00,,OVC029,0.00,VWS V14.01,2013-02-12 05:22:00,
2013-02-12 00:27:00,35.5,28.4,29.73,West,260,5.0,12.0,75,0.00,,OVC029,0.00,VWS V14.01,2013-02-12 05:27:00,
2013-02-12 00:30:00,35.2,27.8,29.74,WSW,256,10.0,19.0,74,0.00,,OVC,0.00,VWS V14.01,2013-02-12 05:30:00,
2013-02-12 00:32:00,35.5,28.4,29.73,West,278,6.0,12.0,75,0.00,,OVC029,0.00,VWS V14.01,2013-02-12 05:32:00,
2013-02-12 00:37:00,35.5,28.4,29.73,WSW,240,8.0,10.0,75,0.00,,OVC029,0.00,VWS V14.01,2013-02-12 05:37:00,
2013-02-12 00:42:00,35.4,28.3,29.73,West,271,6.0,10.0,75,0.00,,OVC029,0.00,VWS V14.01,2013-02-12 05:42:00,
2013-02-12 00:47:00,35.4,28.0,29.73,West,264,6.0,17.0,74,0.00,,OVC029,0.00,VWS V14.01,2013-02-12 05:47:00,
2013-02-12 00:52:00,35.4,28.3,29.73,West,269,6.0,17.0,75,0.00,,OVC029,0.00,VWS V14.01,2013-02-12 05:52:00,
2013-02-12 00:57:00,35.3,28.5,29.73,West,260,6.0,17.0,76,0.00,,OVC029,0.00,VWS V14.01,2013-02-12 05:57:00,
2013-02-12 01:00:00,34.9,28.1,29.75,West,275,3.0,20.0,76,0.00,,OVC,0.00,VWS V14.01,2013-02-12 06:00:00,
2013-02-12 01:02:00,35.3,28.2,29.74,West,259,10.0,18.0,75,0.00,,OVC029,0.00,VWS V14.01,2013-02-12 06:02:00,
2013-02-12 01:07:00,35.3,27.9,29.73,WSW,248,7.0,14.0,74,0.00,,OVC029,0.00,VWS V14.01,2013-02-12 06:07:00,
2013-02-12 01:12:00,35.3,27.9,29.74,West,273,5.0,14.0,74,0.00,,OVC029,0.00,VWS V14.01,2013-02-12 06:12:00,
2013-02-12 01:18:00,35.2,28.1,29.74,West,280,7.0,14.0,75,0.00,,OVC029,0.00,VWS V14.01,2013-02-12 06:18:00,
2013-02-12 01:23:00,35.2,27.8,29.73,West,262,7.0,15.0,74,0.00,,OVC029,0.00,VWS V14.01,2013-02-12 06:23:00,
2013-02-12 01:28:00,35.2,27.8,29.74,West,269,6.0,15.0,74,0.00,,OVC029,0.00,VWS V14.01,2013-02-12 06:28:00,
2013-02-12 01:30:00,34.7,27.9,29.76,WSW,253,6.0,15.0,76,0.00,,OVC,0.00,VWS V14.01,2013-02-12 06:30:00,
2013-02-12 01:33:00,35.2,27.8,29.74,West,271,8.0,10.0,74,0.00,,OVC031,0.00,VWS V14.01,2013-02-12 06:33:00,
2013-02-12 01:38:00,35.1,27.7,29.74,West,267,6.0,14.0,74,0.00,,OVC031,0.00,VWS V14.01,2013-02-12 06:38:00,
2013-02-12 01:43:00,35.1,27.7,29.74,West,269,5.0,14.0,74,0.00,,OVC031,0.00,VWS V14.01,2013-02-12 06:43:00,
2013-02-12 01:48:00,35.0,27.9,29.75,West,278,7.0,14.0,75,0.00,,OVC031,0.00,VWS V14.01,2013-02-12 06:48:00,
2013-02-12 01:54:00,35.0,27.9,29.75,West,278,5.0,14.0,75,0.00,,OVC031,0.00,VWS V14.01,2013-02-12 06:54:00,
2013-02-12 01:59:00,34.9,27.8,29.75,West,278,2.0,14.0,75,0.00,,OVC031,0.00,VWS V14.01,2013-02-12 06:59:00,
2013-02-12 02:00:00,34.7,27.6,29.77,West,263,5.0,11.0,75,0.00,,OVC,0.00,VWS V14.01,2013-02-12 07:00:00,
2013-02-12 02:04:00,34.9,27.8,29.75,West,273,8.0,12.0,75,0.00,,OVC031,0.00,VWS V14.01,2013-02-12 07:04:00,
2013-02-12 02:09:00,34.9,28.1,29.76,West,276,7.0,12.0,76,0.00,,OVC031,0.00,VWS V14.01,2013-02-12 07:09:00,
2013-02-12 02:14:00,34.8,28.0,29.75,WNW,293,6.0,12.0,76,0.00,,OVC031,0.00,VWS V14.01,2013-02-12 07:14:00,
2013-02-12 02:19:00,34.8,28.0,29.76,WSW,243,5.0,12.0,76,0.00,,OVC031,0.00,VWS V14.01,2013-02-12 07:19:00,
2013-02-12 02:24:00,34.8,28.0,29.76,WSW,241,7.0,15.0,76,0.00,,OVC031,0.00,VWS V14.01,2013-02-12 07:24:00,
2013-02-12 02:29:00,34.8,28.0,29.76,West,266,2.0,15.0,76,0.00,,OVC031,0.00,VWS V14.01,2013-02-12 07:29:00,
2013-02-12 02:30:00,34.5,27.4,29.78,West,263,5.0,15.0,75,0.00,,OVC,0.00,VWS V14.01,2013-02-12 07:30:00,
2013-02-12 02:34:00,34.7,27.9,29.76,West,264,2.0,6.0,76,0.00,,OVC031,0.00,VWS V14.01,2013-02-12 07:34:00,
2013-02-12 02:39:00,34.7,27.6,29.76,WSW,255,5.0,10.0,75,0.00,,OVC031,0.00,VWS V14.01,2013-02-12 07:39:00,
2013-02-12 02:45:00,34.8,28.0,29.76,WSW,255,8.0,11.0,76,0.00,,OVC031,0.00,VWS V14.01,2013-02-12 07:45:00,
2013-02-12 02:50:00,34.7,27.6,29.77,WSW,258,3.0,11.0,75,0.00,,OVC031,0.00,VWS V14.01,2013-02-12 07:50:00,
2013-02-12 02:55:00,34.7,27.6,29.77,West,280,4.0,11.0,75,0.00,,OVC031,0.00,VWS V14.01,2013-02-12 07:55:00,
2013-02-12 03:00:00,34.7,27.6,29.77,WSW,241,6.0,11.0,75,0.00,,OVC031,0.00,VWS V14.01,2013-02-12 08:00:00,
2013-02-12 03:05:00,34.7,27.6,29.77,NW,321,4.0,9.0,75,0.00,,OVC029,0.00,VWS V14.01,2013-02-12 08:05:00,
2013-02-12 03:10:00,34.7,27.6,29.77,WSW,255,4.0,14.0,75,0.00,,OVC029,0.00,VWS V14.01,2013-02-12 08:10:00,
2013-02-12 03:15:00,34.7,27.6,29.77,West,263,5.0,15.0,75,0.00,,OVC029,0.00,VWS V14.01,2013-02-12 08:15:00,
2013-02-12 03:20:00,34.7,27.6,29.77,WSW,257,8.0,15.0,75,0.00,,OVC029,0.00,VWS V14.01,2013-02-12 08:20:00,
2013-02-12 03:26:00,34.6,27.8,29.78,West,269,6.0,15.0,76,0.00,,OVC029,0.00,VWS V14.01,2013-02-12 08:26:00,
2013-02-12 03:30:00,34.3,27.2,29.79,West,273,3.0,16.0,75,0.00,,OVC,0.00,VWS V14.01,2013-02-12 08:30:00,
2013-02-12 03:31:00,34.6,27.8,29.78,WNW,287,5.0,15.0,76,0.00,,OVC029,0.00,VWS V14.01,2013-02-12 08:31:00,
2013-02-12 03:36:00,34.5,27.7,29.78,West,264,5.0,12.0,76,0.00,,OVC029,0.00,VWS V14.01,2013-02-12 08:36:00,
2013-02-12 03:41:00,34.5,27.7,29.78,WSW,257,10.0,12.0,76,0.00,,OVC029,0.00,VWS V14.01,2013-02-12 08:41:00,
2013-02-12 03:46:00,34.5,27.7,29.77,WNW,294,4.0,12.0,76,0.00,,OVC029,0.00,VWS V14.01,2013-02-12 08:46:00,
2013-02-12 03:51:00,34.4,27.6,29.78,West,263,3.0,12.0,76,0.00,,OVC029,0.00,VWS V14.01,2013-02-12 08:51:00,
2013-02-12 03:56:00,34.4,27.6,29.77,West,271,9.0,18.0,76,0.00,,OVC029,0.00,VWS V14.01,2013-02-12 08:56:00,
2013-02-12 04:00:00,34.1,27.7,29.80,WNW,285,5.0,13.0,77,0.00,,OVC,0.00,VWS V14.01,2013-02-12 09:00:00,
2013-02-12 04:02:00,34.4,27.3,29.77,West,269,5.0,18.0,75,0.00,,OVC029,0.00,VWS V14.01,2013-02-12 09:02:00,
2013-02-12 04:07:00,34.4,27.3,29.78,WSW,257,6.0,11.0,75,0.00,,OVC029,0.00,VWS V14.01,2013-02-12 09:07:00,
2013-02-12 04:12:00,34.4,27.6,29.78,West,271,4.0,12.0,76,0.00,,OVC029,0.00,VWS V14.01,2013-02-12 09:12:00,
2013-02-12 04:17:00,34.3,27.2,29.78,WSW,239,9.0,16.0,75,0.00,,OVC029,0.00,VWS V14.01,2013-02-12 09:17:00,
2013-02-12 04:22:00,34.3,27.5,29.78,West,266,8.0,16.0,76,0.00,,OVC029,0.00,VWS V14.01,2013-02-12 09:22:00,
2013-02-12 04:27:00,34.3,27.5,29.78,West,280,5.0,16.0,76,0.00,,OVC029,0.00,VWS V14.01,2013-02-12 09:27:00,
2013-02-12 04:30:00,34.0,27.9,29.81,West,277,7.0,14.0,78,0.00,,OVC,0.00,VWS V14.01,2013-02-12 09:30:00,
2013-02-12 04:32:00,34.3,27.2,29.79,West,273,3.0,16.0,75,0.00,,OVC029,0.00,VWS V14.01,2013-02-12 09:32:00,
2013-02-12 04:38:00,34.3,27.5,29.79,WSW,253,5.0,9.0,76,0.00,,OVC029,0.00,VWS V14.01,2013-02-12 09:38:00,
2013-02-12 04:43:00,34.2,27.8,29.79,WNW,299,4.0,9.0,77,0.00,,OVC029,0.00,VWS V14.01,2013-02-12 09:43:00,
2013-02-12 04:48:00,34.1,27.7,29.79,WSW,245,4.0,9.0,77,0.00,,OVC029,0.00,VWS V14.01,2013-02-12 09:48:00,
2013-02-12 04:53:00,34.1,27.7,29.79,West,271,8.0,9.0,77,0.00,,OVC029,0.00,VWS V14.01,2013-02-12 09:53:00,
2013-02-12 04:58:00,34.1,27.7,29.80,West,274,4.0,13.0,77,0.00,,OVC029,0.00,VWS V14.01,2013-02-12 09:58:00,
2013-02-12 05:00:00,33.8,27.7,29.81,West,278,9.0,16.0,78,0.00,,OVC,0.00,VWS V14.01,2013-02-12 10:00:00,
2013-02-12 05:03:00,34.1,27.7,29.80,SW,233,9.0,13.0,77,0.00,,OVC029,0.00,VWS V14.01,2013-02-12 10:03:00,
2013-02-12 05:08:00,34.1,27.7,29.80,West,273,6.0,14.0,77,0.00,,OVC029,0.00,VWS V14.01,2013-02-12 10:08:00,
2013-02-12 05:13:00,34.1,27.7,29.80,West,263,7.0,14.0,77,0.00,,OVC029,0.00,VWS V14.01,2013-02-12 10:13:00,
2013-02-12 05:18:00,34.1,27.7,29.81,WSW,250,6.0,14.0,77,0.00,,OVC029,0.00,VWS V14.01,2013-02-12 10:18:00,
2013-02-12 05:24:00,34.0,27.9,29.80,WNW,295,3.0,14.0,78,0.00,,OVC029,0.00,VWS V14.01,2013-02-12 10:24:00,
2013-02-12 05:29:00,33.9,27.8,29.81,WSW,245,5.0,14.0,78,0.00,,OVC029,0.00,VWS V14.01,2013-02-12 10:29:00,
2013-02-12 05:30:00,33.5,28.0,29.82,West,281,8.0,15.0,80,0.00,,OVC,0.00,VWS V14.01,2013-02-12 10:30:00,
2013-02-12 05:34:00,34.0,27.9,29.81,WSW,253,8.0,10.0,78,0.00,,OVC029,0.00,VWS V14.01,2013-02-12 10:34:00,
2013-02-12 05:39:00,33.9,27.8,29.81,WSW,238,7.0,13.0,78,0.00,,OVC029,0.00,VWS V14.01,2013-02-12 10:39:00,
2013-02-12 05:44:00,33.9,27.8,29.81,WSW,257,7.0,15.0,78,0.00,,OVC029,0.00,VWS V14.01,2013-02-12 10:44:00,
2013-02-12 05:49:00,33.9,27.8,29.81,West,263,12.0,15.0,78,0.00,,OVC029,0.00,VWS V14.01,2013-02-12 10:49:00,
2013-02-12 05:54:00,33.8,27.7,29.81,West,274,7.0,15.0,78,0.00,,OVC029,0.00,VWS V14.01,2013-02-12 10:54:00,
2013-02-12 06:00:00,33.8,27.7,29.81,WNW,291,5.0,16.0,78,0.00,,OVC029,0.00,VWS V14.01,2013-02-12 11:00:00,
2013-02-12 06:05:00,33.8,27.7,29.81,West,271,8.0,15.0,78,0.00,,OVC029,0.00,VWS V14.01,2013-02-12 11:05:00,
2013-02-12 06:10:00,33.7,27.9,29.81,WNW,285,5.0,15.0,79,0.00,,OVC029,0.00,VWS V14.01,2013-02-12 11:10:00,
2013-02-12 06:15:00,33.6,27.8,29.81,WSW,251,12.0,15.0,79,0.00,,OVC029,0.00,VWS V14.01,2013-02-12 11:15:00,
2013-02-12 06:20:00,33.6,28.1,29.81,WSW,246,10.0,15.0,80,0.00,,OVC029,0.00,VWS V14.01,2013-02-12 11:20:00,
2013-02-12 06:25:00,33.6,28.1,29.81,WSW,257,13.0,15.0,80,0.00,,OVC029,0.00,VWS V14.01,2013-02-12 11:25:00,
2013-02-12 06:30:00,33.5,28.0,29.82,West,277,6.0,15.0,80,0.00,,OVC029,0.00,VWS V14.01,2013-02-12 11:30:00,
2013-02-12 06:35:00,33.5,28.0,29.82,WSW,255,8.0,12.0,80,0.00,,OVC027,0.00,VWS V14.01,2013-02-12 11:35:00,
2013-02-12 06:41:00,33.5,28.0,29.82,SW,232,6.0,13.0,80,0.00,,OVC027,0.00,VWS V14.01,2013-02-12 11:41:00,
2013-02-12 06:46:00,33.5,28.0,29.82,SW,226,4.0,17.0,80,0.00,,OVC027,0.00,VWS V14.01,2013-02-12 11:46:00,
2013-02-12 06:51:00,33.5,28.0,29.83,West,267,6.0,17.0,80,0.00,,OVC027,0.00,VWS V14.01,2013-02-12 11:51:00,
2013-02-12 06:56:00,33.5,28.0,29.83,NW,307,3.0,17.0,80,0.00,,OVC027,0.00,VWS V14.01,2013-02-12 11:56:00,
2013-02-12 07:01:00,33.5,28.0,29.83,WNW,297,4.0,17.0,80,0.00,,OVC027,0.00,VWS V14.01,2013-02-12 12:01:00,
2013-02-12 07:06:00,33.5,28.0,29.83,WSW,250,9.0,20.0,80,0.00,,OVC027,0.00,VWS V14.01,2013-02-12 12:06:00,
2013-02-12 07:12:00,33.5,28.0,29.83,WNW,285,10.0,20.0,80,0.00,,OVC027,0.00,VWS V14.01,2013-02-12 12:12:00,
2013-02-12 07:17:00,33.6,28.1,29.83,West,267,6.0,20.0,80,0.00,,OVC027,0.00,VWS V14.01,2013-02-12 12:17:00,
2013-02-12 07:22:00,33.5,28.0,29.84,WNW,286,7.0,20.0,80,0.00,,OVC027,0.00,VWS V14.01,2013-02-12 12:22:00,
2013-02-12 07:27:00,33.5,28.0,29.84,West,281,5.0,20.0,80,0.00,,OVC027,0.00,VWS V14.01,2013-02-12 12:27:00,
2013-02-12 07:30:00,33.7,27.6,29.87,WSW,257,6.0,16.0,78,0.00,,OVC,0.00,VWS V14.01,2013-02-12 12:30:00,
2013-02-12 07:32:00,33.5,28.0,29.84,WSW,246,4.0,20.0,80,0.00,,OVC025,0.00,VWS V14.01,2013-02-12 12:32:00,
2013-02-12 07:37:00,33.5,28.0,29.85,West,281,6.0,16.0,80,0.00,,OVC025,0.00,VWS V14.01,2013-02-12 12:37:00,
2013-02-12 07:43:00,33.5,28.0,29.85,West,260,9.0,16.0,80,0.00,,OVC025,0.00,VWS V14.01,2013-02-12 12:43:00,
2013-02-12 07:48:00,33.5,28.0,29.85,WNW,295,5.0,16.0,80,0.00,,OVC025,0.00,VWS V14.01,2013-02-12 12:48:00,
2013-02-12 07:53:00,33.5,28.0,29.86,WNW,294,4.0,16.0,80,0.00,,OVC025,0.00,VWS V14.01,2013-02-12 12:53:00,
2013-02-12 07:58:00,33.5,28.0,29.86,West,264,6.0,16.0,80,0.00,,OVC025,0.00,VWS V14.01,2013-02-12 12:58:00,
2013-02-12 08:00:00,33.8,27.7,29.89,West,262,7.0,13.0,78,0.00,,OVC,0.00,VWS V14.01,2013-02-12 13:00:00,
2013-02-12 08:03:00,33.5,28.0,29.86,WNW,294,7.0,16.0,80,0.00,,OVC025,0.00,VWS V14.01,2013-02-12 13:03:00,
2013-02-12 08:08:00,33.5,28.0,29.86,WSW,242,10.0,16.0,80,0.00,,OVC025,0.00,VWS V14.01,2013-02-12 13:08:00,
2013-02-12 08:14:00,33.5,27.7,29.86,WSW,255,7.0,16.0,79,0.00,,OVC025,0.00,VWS V14.01,2013-02-12 13:14:00,
2013-02-12 08:20:00,33.6,27.8,29.87,West,271,8.0,16.0,79,0.00,,OVC025,0.00,VWS V14.01,2013-02-12 13:20:00,
2013-02-12 08:25:00,33.7,27.6,29.87,West,262,8.0,16.0,78,0.00,,OVC025,0.00,VWS V14.01,2013-02-12 13:25:00,
2013-02-12 08:30:00,33.7,27.6,29.87,West,276,6.0,16.0,78,0.00,,OVC025,0.00,VWS V14.01,2013-02-12 13:30:00,
2013-02-12 08:35:00,33.7,27.6,29.87,WNW,297,3.0,10.0,78,0.00,,OVC025,0.00,VWS V14.01,2013-02-12 13:35:00,
2013-02-12 08:40:00,33.7,27.6,29.88,WNW,299,7.0,11.0,78,0.00,,OVC025,0.00,VWS V14.01,2013-02-12 13:40:00,
2013-02-12 08:45:00,33.7,27.6,29.88,WSW,241,8.0,11.0,78,0.00,,OVC025,0.00,VWS V14.01,2013-02-12 13:45:00,
2013-02-12 08:51:00,33.7,27.6,29.88,WSW,256,5.0,13.0,78,0.00,,OVC025,0.00,VWS V14.01,2013-02-12 13:51:00,
2013-02-12 08:56:00,33.7,27.9,29.88,WSW,242,8.0,13.0,79,0.00,,OVC025,0.00,VWS V14.01,2013-02-12 13:56:00,
2013-02-12 09:00:00,34.0,26.9,29.89,WSW,250,5.0,16.0,75,0.00,,OVC,0.00,VWS V14.01,2013-02-12 14:00:00,
2013-02-12 09:01:00,33.8,27.7,29.88,WSW,255,5.0,13.0,78,0.00,,OVC025,0.00,VWS V14.01,2013-02-12 14:01:00,
2013-02-12 09:06:00,33.9,27.5,29.88,WNW,293,2.0,21.0,77,0.00,,OVC025,0.00,VWS V14.01,2013-02-12 14:06:00,
2013-02-12 09:11:00,34.1,27.3,29.88,WNW,297,8.0,21.0,76,0.00,,OVC025,0.00,VWS V14.01,2013-02-12 14:11:00,
2013-02-12 09:16:00,34.1,27.3,29.88,WSW,248,4.0,21.0,76,0.00,,OVC025,0.00,VWS V14.01,2013-02-12 14:16:00,
2013-02-12 09:21:00,34.1,27.3,29.88,SSW,211,6.0,21.0,76,0.00,,OVC025,0.00,VWS V14.01,2013-02-12 14:21:00,
2013-02-12 09:26:00,34.2,27.4,29.88,NW,304,2.0,21.0,76,0.00,,OVC025,0.00,VWS V14.01,2013-02-12 14:26:00,
2013-02-12 09:30:00,34.2,26.8,29.91,West,277,6.0,16.0,74,0.00,,OVC,0.00,VWS V14.01,2013-02-12 14:30:00,
2013-02-12 09:32:00,34.2,26.8,29.88,WNW,289,3.0,21.0,74,0.00,,OVC025,0.00,VWS V14.01,2013-02-12 14:32:00,
2013-02-12 09:37:00,34.2,27.1,29.88,WSW,255,3.0,10.0,75,0.00,,OVC023,0.00,VWS V14.01,2013-02-12 14:37:00,
2013-02-12 09:42:00,34.2,27.4,29.89,WSW,255,6.0,10.0,76,0.00,,OVC023,0.00,VWS V14.01,2013-02-12 14:42:00,
2013-02-12 09:47:00,34.1,27.0,29.89,WSW,257,9.0,14.0,75,0.00,,OVC023,0.00,VWS V14.01,2013-02-12 14:47:00,
2013-02-12 09:52:00,34.0,26.9,29.89,WNW,288,5.0,16.0,75,0.00,,OVC023,0.00,VWS V14.01,2013-02-12 14:52:00,
2013-02-12 09:57:00,33.9,26.8,29.89,WNW,301,5.0,16.0,75,0.00,,OVC023,0.00,VWS V14.01,2013-02-12 14:57:00,
2013-02-12 10:00:00,34.3,26.2,29.91,WSW,253,4.0,10.0,72,0.00,,OVC,0.00,VWS V14.01,2013-02-12 15:00:00,
2013-02-12 10:02:00,34.0,26.9,29.89,West,272,5.0,16.0,75,0.00,,OVC023,0.00,VWS V14.01,2013-02-12 15:02:00,
2013-02-12 10:07:00,34.1,26.7,29.89,WSW,245,6.0,16.0,74,0.00,,OVC023,0.00,VWS V14.01,2013-02-12 15:07:00,
2013-02-12 10:12:00,34.1,26.7,29.90,NW,321,4.0,16.0,74,0.00,,OVC023,0.00,VWS V14.01,2013-02-12 15:12:00,
2013-02-12 10:18:00,34.1,26.7,29.90,West,278,4.0,16.0,74,0.00,,OVC023,0.00,VWS V14.01,2013-02-12 15:18:00,
2013-02-12 10:23:00,34.1,26.7,29.91,West,268,7.0,16.0,74,0.00,,OVC023,0.00,VWS V14.01,2013-02-12 15:23:00,
2013-02-12 10:28:00,34.2,26.8,29.91,WSW,257,4.0,16.0,74,0.00,,OVC023,0.00,VWS V14.01,2013-02-12 15:28:00,
2013-02-12 10:30:00,34.4,26.7,29.91,WSW,257,6.0,19.0,73,0.00,,OVC,0.00,VWS V14.01,2013-02-12 15:30:00,
2013-02-12 10:33:00,34.2,26.8,29.91,WSW,251,6.0,9.0,74,0.00,,OVC025,0.00,VWS V14.01,2013-02-12 15:33:00,
2013-02-12 10:38:00,34.2,26.5,29.91,West,275,4.0,9.0,73,0.00,,OVC025,0.00,VWS V14.01,2013-02-12 15:38:00,
2013-02-12 10:43:00,34.2,26.5,29.91,WSW,241,4.0,10.0,73,0.00,,OVC025,0.00,VWS V14.01,2013-02-12 15:43:00,
2013-02-12 10:48:00,34.2,26.5,29.91,WNW,283,3.0,10.0,73,0.00,,OVC025,0.00,VWS V14.01,2013-02-12 15:48:00,
2013-02-12 10:54:00,34.3,26.2,29.91,West,276,3.0,10.0,72,0.00,,OVC025,0.00,VWS V14.01,2013-02-12 15:54:00,
2013-02-12 10:59:00,34.3,26.2,29.91,West,262,4.0,10.0,72,0.00,,OVC025,0.00,VWS V14.01,2013-02-12 15:59:00,
2013-02-12 11:00:00,34.5,26.1,29.92,West,259,5.0,14.0,71,0.00,,OVC,0.00,VWS V14.01,2013-02-12 16:00:00,
2013-02-12 11:04:00,34.3,26.6,29.91,West,270,4.0,6.0,73,0.00,,OVC025,0.00,VWS V14.01,2013-02-12 16:04:00,
2013-02-12 11:09:00,34.3,26.2,29.91,SW,226,8.0,10.0,72,0.00,,OVC025,0.00,VWS V14.01,2013-02-12 16:09:00,
2013-02-12 11:14:00,34.3,25.9,29.91,West,278,5.0,19.0,71,0.00,,OVC025,0.00,VWS V14.01,2013-02-12 16:14:00,
2013-02-12 11:19:00,34.4,26.3,29.91,North,11,4.0,19.0,72,0.00,,OVC025,0.00,VWS V14.01,2013-02-12 16:19:00,
2013-02-12 11:24:00,34.5,26.8,29.92,WSW,252,6.0,19.0,73,0.00,,OVC025,0.00,VWS V14.01,2013-02-12 16:24:00,
2013-02-12 11:30:00,34.5,26.8,29.92,WSW,248,9.0,19.0,73,0.00,,OVC025,0.00,VWS V14.01,2013-02-12 16:30:00,
2013-02-12 11:35:00,34.3,26.2,29.91,WNW,291,9.0,13.0,72,0.00,,OVC029,0.00,VWS V14.01,2013-02-12 16:35:00,
2013-02-12 11:40:00,34.2,26.1,29.91,WNW,282,5.0,13.0,72,0.00,,OVC029,0.00,VWS V14.01,2013-02-12 16:40:00,
2013-02-12 11:45:00,34.3,26.6,29.92,WSW,257,4.0,13.0,73,0.00,,OVC029,0.00,VWS V14.01,2013-02-12 16:45:00,
2013-02-12 11:50:00,34.3,26.2,29.91,NW,306,5.0,13.0,72,0.00,,OVC029,0.00,VWS V14.01,2013-02-12 16:50:00,
2013-02-12 11:55:00,34.4,26.3,29.92,NW,312,2.0,13.0,72,0.00,,OVC029,0.00,VWS V14.01,2013-02-12 16:55:00,
2013-02-12 12:00:00,34.5,26.1,29.92,WSW,250,3.0,14.0,71,0.00,,OVC029,0.00,VWS V14.01,2013-02-12 17:00:00,
2013-02-12 12:05:00,34.5,26.1,29.92,WSW,256,8.0,12.0,71,0.00,,OVC029,0.00,VWS V14.01,2013-02-12 17:05:00,
2013-02-12 12:10:00,34.4,25.6,29.92,West,270,3.0,12.0,70,0.00,,OVC029,0.00,VWS V14.01,2013-02-12 17:10:00,
2013-02-12 12:16:00,34.3,25.5,29.92,West,280,4.0,12.0,70,0.00,,OVC029,0.00,VWS V14.01,2013-02-12 17:16:00,
2013-02-12 12:21:00,34.3,25.9,29.92,WSW,252,2.0,12.0,71,0.00,,OVC029,0.00,VWS V14.01,2013-02-12 17:21:00,
2013-02-12 12:26:00,34.3,25.9,29.92,West,264,6.0,12.0,71,0.00,,OVC029,0.00,VWS V14.01,2013-02-12 17:26:00,
2013-02-12 12:30:00,33.9,25.5,29.91,West,270,3.0,12.0,71,0.00,,OVC,0.00,VWS V14.01,2013-02-12 17:30:00,
2013-02-12 12:31:00,34.2,25.5,29.92,SW,231,3.0,12.0,70,0.00,,OVC029,0.00,VWS V14.01,2013-02-12 17:31:00,
2013-02-12 12:36:00,34.1,25.7,29.92,West,273,2.0,9.0,71,0.00,,OVC027,0.00,VWS V14.01,2013-02-12 17:36:00,
2013-02-12 12:41:00,34.0,25.6,29.92,West,263,3.0,12.0,71,0.00,,OVC027,0.00,VWS V14.01,2013-02-12 17:41:00,
2013-02-12 12:46:00,33.8,25.7,29.92,WSW,245,4.0,12.0,72,0.00,,OVC027,0.00,VWS V14.01,2013-02-12 17:46:00,
2013-02-12 12:52:00,33.7,25.6,29.92,WSW,253,8.0,12.0,72,0.00,,OVC027,0.00,VWS V14.01,2013-02-12 17:52:00,
2013-02-12 12:57:00,33.7,26.0,29.92,West,270,6.0,12.0,73,0.00,,OVC027,0.00,VWS V14.01,2013-02-12 17:57:00,
2013-02-12 13:00:00,33.7,25.3,29.90,WNW,302,4.0,10.0,71,0.00,,OVC,0.00,VWS V14.01,2013-02-12 18:00:00,
2013-02-12 13:02:00,33.7,26.0,29.93,West,276,5.0,12.0,73,0.00,,OVC027,0.00,VWS V14.01,2013-02-12 18:02:00,
2013-02-12 13:07:00,33.8,26.4,29.92,West,263,3.0,7.0,74,0.00,,OVC031,0.00,VWS V14.01,2013-02-12 18:07:00,
2013-02-12 13:12:00,33.9,25.8,29.92,WNW,283,3.0,7.0,72,0.00,,OVC031,0.00,VWS V14.01,2013-02-12 18:12:00,
2013-02-12 13:17:00,34.1,25.4,29.92,WNW,292,3.0,7.0,70,0.00,,OVC031,0.00,VWS V14.01,2013-02-12 18:17:00,
2013-02-12 13:22:00,34.0,25.3,29.92,West,266,4.0,12.0,70,0.00,,OVC031,0.00,VWS V14.01,2013-02-12 18:22:00,
2013-02-12 13:27:00,33.9,25.5,29.92,West,259,6.0,12.0,71,0.00,,OVC031,0.00,VWS V14.01,2013-02-12 18:27:00,
2013-02-12 13:30:00,33.6,25.5,29.91,WNW,285,2.0,8.0,72,0.00,,OVC,0.00,VWS V14.01,2013-02-12 18:30:00,
2013-02-12 13:33:00,33.9,25.5,29.91,WSW,252,4.0,4.0,71,0.00,,OVC033,0.00,VWS V14.01,2013-02-12 18:33:00,
2013-02-12 13:38:00,33.8,25.4,29.91,NW,317,2.0,10.0,71,0.00,,OVC033,0.00,VWS V14.01,2013-02-12 18:38:00,
2013-02-12 13:43:00,33.7,25.6,29.91,WSW,250,6.0,10.0,72,0.00,,OVC033,0.00,VWS V14.01,2013-02-12 18:43:00,
2013-02-12 13:48:00,33.7,25.6,29.91,SW,229,8.0,10.0,72,0.00,,OVC033,0.00,VWS V14.01,2013-02-12 18:48:00,
2013-02-12 13:53:00,33.7,25.6,29.91,WSW,239,5.0,10.0,72,0.00,,OVC033,0.00,VWS V14.01,2013-02-12 18:53:00,
2013-02-12 13:58:00,33.7,25.3,29.90,West,276,4.0,10.0,71,0.00,,OVC033,0.00,VWS V14.01,2013-02-12 18:58:00,
2013-02-12 14:00:00,33.2,24.5,29.90,WSW,255,6.0,11.0,70,0.00,,OVC,0.00,VWS V14.01,2013-02-12 19:00:00,
2013-02-12 14:03:00,33.7,25.3,29.90,WSW,257,4.0,6.0,71,0.00,,OVC033,0.00,VWS V14.01,2013-02-12 19:03:00,
2013-02-12 14:08:00,33.7,25.3,29.90,WNW,295,2.0,7.0,71,0.00,,OVC033,0.00,VWS V14.01,2013-02-12 19:08:00,
2013-02-12 14:13:00,33.7,25.3,29.90,West,263,3.0,7.0,71,0.00,,OVC033,0.00,VWS V14.01,2013-02-12 19:13:00,
2013-02-12 14:19:00,33.6,25.2,29.90,West,260,2.0,7.0,71,0.00,,OVC033,0.00,VWS V14.01,2013-02-12 19:19:00,
2013-02-12 14:24:00,33.6,25.5,29.90,West,265,3.0,7.0,72,0.00,,OVC033,0.00,VWS V14.01,2013-02-12 19:24:00,
2013-02-12 14:29:00,33.6,25.5,29.90,WNW,300,3.0,8.0,72,0.00,,OVC033,0.00,VWS V14.01,2013-02-12 19:29:00,
2013-02-12 14:30:00,33.0,24.6,29.89,WSW,239,3.0,10.0,71,0.00,,OVC,0.00,VWS V14.01,2013-02-12 19:30:00,
2013-02-12 14:34:00,33.6,25.5,29.91,WNW,283,2.0,5.0,72,0.00,,OVC033,0.00,VWS V14.01,2013-02-12 19:34:00,
2013-02-12 14:39:00,33.6,25.2,29.91,WNW,287,3.0,6.0,71,0.00,,OVC033,0.00,VWS V14.01,2013-02-12 19:39:00,
2013-02-12 14:44:00,33.5,25.1,29.91,West,260,5.0,7.0,71,0.00,,OVC033,0.00,VWS V14.01,2013-02-12 19:44:00,
2013-02-12 14:49:00,33.4,25.0,29.90,WNW,283,6.0,11.0,71,0.00,,OVC033,0.00,VWS V14.01,2013-02-12 19:49:00,
2013-02-12 14:54:00,33.3,24.9,29.91,West,262,4.0,11.0,71,0.00,,OVC033,0.00,VWS V14.01,2013-02-12 19:54:00,
2013-02-12 15:00:00,33.3,24.9,29.90,WSW,248,6.0,11.0,71,0.00,,OVC033,0.00,VWS V14.01,2013-02-12 20:00:00,
2013-02-12 15:05:00,33.2,24.8,29.90,West,262,3.0,6.0,71,0.00,,OVC033,0.00,VWS V14.01,2013-02-12 20:05:00,
2013-02-12 15:10:00,33.1,24.7,29.90,WSW,257,3.0,8.0,71,0.00,,OVC033,0.00,VWS V14.01,2013-02-12 20:10:00,
2013-02-12 15:15:00,33.1,24.7,29.89,WSW,257,4.0,8.0,71,0.00,,OVC033,0.00,VWS V14.01,2013-02-12 20:15:00,
2013-02-12 15:20:00,33.1,25.1,29.89,West,276,7.0,8.0,72,0.00,,OVC033,0.00,VWS V14.01,2013-02-12 20:20:00,
2013-02-12 15:25:00,33.0,24.6,29.90,WSW,250,5.0,8.0,71,0.00,,OVC033,0.00,VWS V14.01,2013-02-12 20:25:00,
2013-02-12 15:30:00,33.0,24.6,29.89,West,262,3.0,10.0,71,0.00,,OVC033,0.00,VWS V14.01,2013-02-12 20:30:00,
2013-02-12 15:35:00,33.0,24.6,29.89,WNW,302,1.0,4.0,71,0.00,,OVC031,0.00,VWS V14.01,2013-02-12 20:35:00,
2013-02-12 15:41:00,33.0,24.6,29.89,WNW,284,0.0,6.0,71,0.00,,OVC031,0.00,VWS V14.01,2013-02-12 20:41:00,
2013-02-12 15:46:00,32.9,23.9,29.88,WSW,242,5.0,9.0,69,0.00,,OVC031,0.00,VWS V14.01,2013-02-12 20:46:00,
2013-02-12 15:51:00,32.9,24.2,29.89,SW,230,2.0,9.0,70,0.00,,OVC031,0.00,VWS V14.01,2013-02-12 20:51:00,
2013-02-12 15:56:00,32.9,24.2,29.88,WSW,242,2.0,9.0,70,0.00,,OVC031,0.00,VWS V14.01,2013-02-12 20:56:00,
2013-02-12 16:00:00,32.2,24.2,29.90,WSW,247,6.0,12.0,72,0.00,,OVC,0.00,VWS V14.01,2013-02-12 21:00:00,
2013-02-12 16:01:00,32.8,24.1,29.88,NW,323,1.0,9.0,70,0.00,,OVC031,0.00,VWS V14.01,2013-02-12 21:01:00,
2013-02-12 16:06:00,32.7,24.0,29.88,WSW,243,5.0,6.0,70,0.00,,OVC031,0.00,VWS V14.01,2013-02-12 21:06:00,
2013-02-12 16:11:00,32.7,24.4,29.88,North,3,3.0,7.0,71,0.00,,OVC031,0.00,VWS V14.01,2013-02-12 21:11:00,
2013-02-12 16:16:00,32.6,24.2,29.89,West,277,3.0,7.0,71,0.00,,OVC031,0.00,VWS V14.01,2013-02-12 21:16:00,
2013-02-12 16:22:00,32.5,24.2,29.89,WSW,245,5.0,7.0,71,0.00,,OVC031,0.00,VWS V14.01,2013-02-12 21:22:00,
2013-02-12 16:27:00,32.5,24.2,29.89,West,260,4.0,7.0,71,0.00,,OVC031,0.00,VWS V14.01,2013-02-12 21:27:00,
2013-02-12 16:30:00,31.9,23.9,29.91,WSW,243,5.0,10.0,72,0.00,,OVC,0.00,VWS V14.01,2013-02-12 21:30:00,
2013-02-12 16:32:00,32.4,24.4,29.89,West,264,4.0,8.0,72,0.00,,OVC031,0.00,VWS V14.01,2013-02-12 21:32:00,
2013-02-12 16:37:00,32.4,24.1,29.89,West,264,5.0,7.0,71,0.00,,OVC031,0.00,VWS V14.01,2013-02-12 21:37:00,
2013-02-12 16:42:00,32.3,24.3,29.90,West,261,4.0,7.0,72,0.00,,OVC031,0.00,VWS V14.01,2013-02-12 21:42:00,
2013-02-12 16:47:00,32.3,24.3,29.90,West,271,6.0,7.0,72,0.00,,OVC031,0.00,VWS V14.01,2013-02-12 21:47:00,
2013-02-12 16:52:00,32.3,24.3,29.90,WSW,253,3.0,12.0,72,0.00,,OVC031,0.00,VWS V14.01,2013-02-12 21:52:00,
2013-02-12 16:58:00,32.2,24.2,29.90,WNW,295,5.0,12.0,72,0.00,,OVC031,0.00,VWS V14.01,2013-02-12 21:58:00,
2013-02-12 17:00:00,31.7,24.0,29.93,West,262,1.0,10.0,73,0.00,,OVC,0.00,VWS V14.01,2013-02-12 22:00:00,
2013-02-12 17:03:00,32.1,24.4,29.90,WSW,256,7.0,7.0,73,0.00,,OVC031,0.00,VWS V14.01,2013-02-12 22:03:00,
2013-02-12 17:08:00,32.1,24.1,29.90,West,269,2.0,10.0,72,0.00,,OVC031,0.00,VWS V14.01,2013-02-12 22:08:00,
2013-02-12 17:13:00,32.1,24.1,29.91,West,270,5.0,10.0,72,0.00,,OVC031,0.00,VWS V14.01,2013-02-12 22:13:00,
2013-02-12 17:18:00,32.0,24.0,29.91,West,263,4.0,10.0,72,0.00,,OVC031,0.00,VWS V14.01,2013-02-12 22:18:00,
2013-02-12 17:23:00,32.0,24.0,29.91,West,270,4.0,10.0,72,0.00,,OVC031,0.00,VWS V14.01,2013-02-12 22:23:00,
2013-02-12 17:28:00,31.9,23.9,29.91,WSW,255,4.0,10.0,72,0.00,,OVC031,0.00,VWS V14.01,2013-02-12 22:28:00,
2013-02-12 17:30:00,31.8,24.5,29.95,West,266,3.0,7.0,74,0.00,,OVC,0.00,VWS V14.01,2013-02-12 22:30:00,
2013-02-12 17:34:00,31.9,23.9,29.91,West,279,5.0,7.0,72,0.00,,OVC031,0.00,VWS V14.01,2013-02-12 22:34:00,
2013-02-12 17:39:00,31.9,23.9,29.92,West,262,4.0,8.0,72,0.00,,OVC031,0.00,VWS V14.01,2013-02-12 22:39:00,
2013-02-12 17:44:00,31.9,23.6,29.92,West,264,7.0,10.0,71,0.00,,OVC031,0.00,VWS V14.01,2013-02-12 22:44:00,
2013-02-12 17:49:00,31.9,23.9,29.92,WSW,257,5.0,10.0,72,0.00,,OVC031,0.00,VWS V14.01,2013-02-12 22:49:00,
2013-02-12 17:54:00,31.8,24.1,29.93,West,274,3.0,10.0,73,0.00,,OVC031,0.00,VWS V14.01,2013-02-12 22:54:00,
2013-02-12 17:59:00,31.8,24.1,29.93,West,281,1.0,10.0,73,0.00,,OVC031,0.00,VWS V14.01,2013-02-12 22:59:00,
2013-02-12 18:00:00,31.7,24.7,29.95,WSW,238,5.0,8.0,75,0.00,,OVC,0.00,VWS V14.01,2013-02-12 23:00:00,
2013-02-12 18:04:00,31.7,24.0,29.93,WSW,253,2.0,4.0,73,0.00,,OVC031,0.00,VWS V14.01,2013-02-12 23:04:00,
2013-02-12 18:09:00,31.7,24.0,29.94,West,274,4.0,7.0,73,0.00,,OVC031,0.00,VWS V14.01,2013-02-12 23:09:00,
2013-02-12 18:14:00,31.8,24.5,29.94,WSW,255,2.0,7.0,74,0.00,,OVC031,0.00,VWS V14.01,2013-02-12 23:14:00,
2013-02-12 18:19:00,31.8,24.1,29.94,WSW,257,3.0,7.0,73,0.00,,OVC031,0.00,VWS V14.01,2013-02-12 23:19:00,
2013-02-12 18:25:00,31.8,24.1,29.94,West,263,4.0,7.0,73,0.00,,OVC031,0.00,VWS V14.01,2013-02-12 23:25:00,
2013-02-12 18:30:00,31.8,24.1,29.94,West,260,3.0,7.0,73,0.00,,OVC031,0.00,VWS V14.01,2013-02-12 23:30:00,
2013-02-12 18:35:00,31.8,24.5,29.95,WSW,258,3.0,4.0,74,0.00,,OVC038,0.00,VWS V14.01,2013-02-12 23:35:00,
2013-02-12 18:40:00,31.8,24.5,29.95,WSW,253,3.0,6.0,74,0.00,,OVC038,0.00,VWS V14.01,2013-02-12 23:40:00,
2013-02-12 18:45:00,31.7,24.7,29.94,West,263,3.0,6.0,75,0.00,,OVC038,0.00,VWS V14.01,2013-02-12 23:45:00,
2013-02-12 18:50:00,31.6,24.9,29.94,West,262,4.0,6.0,76,0.00,,OVC038,0.00,VWS V14.01,2013-02-12 23:50:00,
2013-02-12 18:55:00,31.7,25.0,29.95,WSW,252,4.0,8.0,76,0.00,,OVC038,0.00,VWS V14.01,2013-02-12 23:55:00,
2013-02-12 19:00:00,31.7,24.7,29.95,WSW,242,4.0,8.0,75,0.00,,OVC038,0.00,VWS V14.01,2013-02-13 00:00:00,
2013-02-12 19:06:00,31.7,25.0,29.95,West,262,5.0,6.0,76,0.00,,OVC036,0.00,VWS V14.01,2013-02-13 00:06:00,
2013-02-12 19:11:00,31.7,25.0,29.95,WSW,257,9.0,12.0,76,0.00,,OVC036,0.00,VWS V14.01,2013-02-13 00:11:00,
2013-02-12 19:16:00,31.8,24.8,29.95,WSW,256,6.0,12.0,75,0.00,,OVC032,0.00,VWS V14.01,2013-02-13 00:16:00,
2013-02-12 19:21:00,31.9,24.9,29.95,West,263,5.0,12.0,75,0.00,,OVC032,0.00,VWS V14.01,2013-02-13 00:21:00,
2013-02-12 19:26:00,31.9,24.9,29.96,WSW,248,8.0,12.0,75,0.00,,OVC032,0.00,VWS V14.01,2013-02-13 00:26:00,
2013-02-12 19:30:00,31.8,25.7,29.96,West,274,3.0,8.0,78,0.00,,OVC,0.00,VWS V14.01,2013-02-13 00:30:00,
2013-02-12 19:31:00,31.9,24.9,29.96,West,273,3.0,12.0,75,0.00,,OVC032,0.00,VWS V14.01,2013-02-13 00:31:00,
2013-02-12 19:36:00,31.9,24.9,29.96,SW,233,5.0,7.0,75,0.00,,OVC032,0.00,VWS V14.01,2013-02-13 00:36:00,
2013-02-12 19:42:00,31.9,25.2,29.96,WSW,250,4.0,8.0,76,0.00,,OVC032,0.00,VWS V14.01,2013-02-13 00:42:00,
2013-02-12 19:47:00,31.9,25.2,29.96,WSW,255,5.0,8.0,76,0.00,,OVC032,0.00,VWS V14.01,2013-02-13 00:47:00,
2013-02-12 19:52:00,31.9,25.2,29.96,West,260,6.0,8.0,76,0.00,,OVC032,0.00,VWS V14.01,2013-02-13 00:52:00,
2013-02-12 19:57:00,32.0,25.3,29.96,West,259,5.0,11.0,76,0.00,,OVC032,0.00,VWS V14.01,2013-02-13 00:57:00,
2013-02-12 20:00:00,31.7,25.6,29.95,West,264,1.0,6.0,78,0.00,,OVC,0.00,VWS V14.01,2013-02-13 01:00:00,
2013-02-12 20:02:00,31.9,25.5,29.96,WSW,256,4.0,11.0,77,0.00,,OVC032,0.00,VWS V14.01,2013-02-13 01:02:00,
2013-02-12 20:07:00,31.9,25.5,29.96,WSW,256,4.0,6.0,77,0.00,,OVC032,0.00,VWS V14.01,2013-02-13 01:07:00,
2013-02-12 20:12:00,31.9,25.5,29.95,WSW,245,2.0,6.0,77,0.00,,OVC032,0.00,VWS V14.01,2013-02-13 01:12:00,
2013-02-12 20:17:00,31.9,25.5,29.96,WSW,250,5.0,6.0,77,0.00,,OVC032,0.00,VWS V14.01,2013-02-13 01:17:00,
2013-02-12 20:22:00,31.8,25.7,29.96,West,274,6.0,6.0,78,0.00,,OVC032,0.00,VWS V14.01,2013-02-13 01:22:00,
2013-02-12 20:28:00,31.9,25.5,29.95,WSW,255,4.0,8.0,77,0.00,,OVC032,0.00,VWS V14.01,2013-02-13 01:28:00,
2013-02-12 20:30:00,31.6,25.5,29.95,West,262,3.0,7.0,78,0.00,,OVC,0.00,VWS V14.01,2013-02-13 01:30:00,
2013-02-12 20:33:00,31.8,25.7,29.96,West,271,4.0,5.0,78,0.00,,OVC042,0.00,VWS V14.01,2013-02-13 01:33:00,
2013-02-12 20:38:00,31.8,25.7,29.95,WSW,246,5.0,5.0,78,0.00,,OVC042,0.00,VWS V14.01,2013-02-13 01:38:00,
2013-02-12 20:43:00,31.8,26.0,29.95,WSW,256,3.0,5.0,79,0.00,,OVC042,0.00,VWS V14.01,2013-02-13 01:43:00,
2013-02-12 20:48:00,31.8,25.7,29.95,West,262,3.0,5.0,78,0.00,,OVC042,0.00,VWS V14.01,2013-02-13 01:48:00,
2013-02-12 20:53:00,31.7,25.6,29.95,West,265,2.0,5.0,78,0.00,,OVC042,0.00,VWS V14.01,2013-02-13 01:53:00,
2013-02-12 20:58:00,31.7,25.6,29.95,West,273,3.0,5.0,78,0.00,,OVC042,0.00,VWS V14.01,2013-02-13 01:58:00,
2013-02-12 21:03:00,31.7,25.9,29.95,West,263,3.0,7.0,79,0.00,,OVC042,0.00,VWS V14.01,2013-02-13 02:03:00,
2013-02-12 21:09:00,31.7,25.6,29.95,West,264,2.0,7.0,78,0.00,,OVC042,0.00,VWS V14.01,2013-02-13 02:09:00,
2013-02-12 21:14:00,31.7,25.6,29.95,WSW,245,2.0,7.0,78,0.00,,OVC042,0.00,VWS V14.01,2013-02-13 02:14:00,
2013-02-12 21:19:00,31.7,25.9,29.95,WSW,252,2.0,7.0,79,0.00,,OVC042,0.00,VWS V14.01,2013-02-13 02:19:00,
2013-02-12 21:24:00,31.6,25.9,29.95,WSW,240,0.0,7.0,79,0.00,,OVC042,0.00,VWS V14.01,2013-02-13 02:24:00,
2013-02-12 21:29:00,31.6,25.9,29.95,WSW,247,4.0,7.0,79,0.00,,OVC042,0.00,VWS V14.01,2013-02-13 02:29:00,
2013-02-12 21:30:00,31.3,25.2,29.92,West,271,3.0,6.0,78,0.00,,OVC,0.00,VWS V14.01,2013-02-13 02:30:00,
2013-02-12 21:34:00,31.6,25.5,29.95,West,270,2.0,4.0,78,0.00,,OVC040,0.00,VWS V14.01,2013-02-13 02:34:00,
2013-02-12 21:39:00,31.6,25.9,29.94,WSW,243,3.0,4.0,79,0.00,,OVC040,0.00,VWS V14.01,2013-02-13 02:39:00,
2013-02-12 21:44:00,31.6,25.5,29.94,West,264,3.0,7.0,78,0.00,,OVC040,0.00,VWS V14.01,2013-02-13 02:44:00,
2013-02-12 21:49:00,31.6,25.5,29.94,WSW,256,4.0,7.0,78,0.00,,OVC040,0.00,VWS V14.01,2013-02-13 02:49:00,
2013-02-12 21:55:00,31.5,25.4,29.94,West,260,2.0,7.0,78,0.00,,OVC040,0.00,VWS V14.01,2013-02-13 02:55:00,
2013-02-12 22:00:00,31.5,25.8,29.94,WSW,250,2.0,7.0,79,0.00,,OVC040,0.00,VWS V14.01,2013-02-13 03:00:00,
2013-02-12 22:05:00,31.4,25.4,29.93,West,270,2.0,3.0,78,0.00,,OVC040,0.00,VWS V14.01,2013-02-13 03:05:00,
2013-02-12 22:10:00,31.4,25.4,29.93,WSW,257,1.0,4.0,78,0.00,,OVC040,0.00,VWS V14.01,2013-02-13 03:10:00,
2013-02-12 22:15:00,31.4,25.4,29.93,West,271,3.0,4.0,78,0.00,,OVC040,0.00,VWS V14.01,2013-02-13 03:15:00,
2013-02-12 22:20:00,31.4,25.4,29.93,West,262,3.0,5.0,78,0.00,,OVC040,0.00,VWS V14.01,2013-02-13 03:20:00,
2013-02-12 22:25:00,31.4,25.4,29.93,SW,231,3.0,6.0,78,0.00,,OVC040,0.00,VWS V14.01,2013-02-13 03:25:00,
2013-02-12 22:30:00,31.3,25.2,29.93,West,270,1.0,6.0,78,0.00,,OVC040,0.00,VWS V14.01,2013-02-13 03:30:00,
2013-02-12 22:36:00,31.3,25.2,29.92,West,263,2.0,5.0,78,0.00,,OVC027,0.00,VWS V14.01,2013-02-13 03:36:00,
2013-02-12 22:41:00,31.3,24.9,29.92,West,277,1.0,5.0,77,0.00,,OVC027,0.00,VWS V14.01,2013-02-13 03:41:00,
2013-02-12 22:46:00,31.2,24.8,29.92,West,264,2.0,6.0,77,0.00,,OVC027,0.00,VWS V14.01,2013-02-13 03:46:00,
2013-02-12 22:51:00,31.2,25.1,29.92,WNW,289,3.0,6.0,78,0.00,,OVC027,0.00,VWS V14.01,2013-02-13 03:51:00,
2013-02-12 22:56:00,31.2,24.8,29.92,WSW,245,2.0,6.0,77,0.00,,OVC027,0.00,VWS V14.01,2013-02-13 03:56:00,
2013-02-12 23:00:00,30.9,24.5,29.93,West,260,4.0,7.0,77,0.00,,OVC,0.00,VWS V14.01,2013-02-13 04:00:00,
2013-02-12 23:01:00,31.2,25.1,29.92,West,269,3.0,6.0,78,0.00,,OVC027,0.00,VWS V14.01,2013-02-13 04:01:00,
2013-02-12 23:06:00,31.2,25.1,29.93,West,260,6.0,7.0,78,0.00,,OVC027,0.00,VWS V14.01,2013-02-13 04:06:00,
2013-02-12 23:12:00,31.1,24.8,29.92,West,263,4.0,7.0,77,0.00,,OVC027,0.00,VWS V14.01,2013-02-13 04:12:00,
2013-02-12 23:17:00,31.1,24.8,29.92,WSW,255,2.0,7.0,77,0.00,,OVC027,0.00,VWS V14.01,2013-02-13 04:17:00,
2013-02-12 23:22:00,31.1,24.8,29.92,West,263,3.0,7.0,77,0.00,,OVC027,0.00,VWS V14.01,2013-02-13 04:22:00,
2013-02-12 23:27:00,31.0,24.6,29.92,West,260,6.0,7.0,77,0.00,,OVC027,0.00,VWS V14.01,2013-02-13 04:27:00,
2013-02-12 23:30:00,30.9,23.9,29.92,West,263,4.0,6.0,75,0.00,,OVC,0.00,VWS V14.01,2013-02-13 04:30:00,
2013-02-12 23:32:00,31.0,24.6,29.92,West,267,5.0,7.0,77,0.00,,OVC029,0.00,VWS V14.01,2013-02-13 04:32:00,
2013-02-12 23:37:00,31.0,24.6,29.92,West,276,5.0,7.0,77,0.00,,OVC029,0.00,VWS V14.01,2013-02-13 04:37:00,
2013-02-12 23:42:00,30.9,24.5,29.92,West,262,4.0,7.0,77,0.00,,OVC029,0.00,VWS V14.01,2013-02-13 04:42:00,
2013-02-12 23:47:00,30.9,24.5,29.92,WSW,255,2.0,7.0,77,0.00,,OVC029,0.00,VWS V14.01,2013-02-13 04:47:00,
2013-02-12 23:53:00,30.9,24.5,29.92,WSW,257,4.0,7.0,77,0.00,,OVC029,0.00,VWS V14.01,2013-02-13 04:53:00,
2013-02-12 23:58:00,30.9,24.5,29.92,West,263,4.0,7.0,77,0.00,,OVC029,0.00,VWS V14.01,2013-02-13 04:58:00,